Sunlight Mountain, CO

11:45 AM MDT on June 25, 2017 (GMT -0600)
Sunlight Mountain

Weather History for K5SM - August, 2014

Change the Weather History Date:

Wednesday, August 27, 2014

  Actual Average (KRIL) Record (KRIL)
Temperature  
Mean Temperature 46 °F -  
Max Temperature 51 °F 86 °F 98 °F (1929)
Min Temperature 41 °F 49 °F 34 °F (1992)
Degree Days  
Heating Degree Days 19    
Moisture  
Dew Point 43 °F    
Average Humidity 95    
Maximum Humidity 100    
Minimum Humidity 76    
Precipitation  
Precipitation 0.00 in - - ()
Sea Level Pressure  
Sea Level Pressure 30.50 in    
Wind  
Wind Speed 0 mph (SW)    
Max Wind Speed 6 mph    
Max Gust Speed -    
Visibility 5 miles    
Events Fog , Rain , Thunderstorm    
Averages and records for this station are not official NWS values.
T = Trace of Precipitation, MM = Missing Value Source: NWS Daily Summary

Daily Weather History Graph

Daily Weather History Graph

Search for Another Location

Airport or City:

Trip Planner

Search our weather history database for the weather conditions in past years. The results will help you decide how hot, cold, wet, or windy it might be!

Date:

Astronomy

Aug. 27, 2014 Rise Set
Actual Time 6:33 AM MDT 7:47 PM MDT
Civil Twilight 6:05 AM MDT 8:15 PM MDT
Nautical Twilight 5:32 AM MDT 8:48 PM MDT
Astronomical Twilight 4:57 AM MDT 9:23 PM MDT
Moon 8:31 AM MDT (8/27) 8:42 PM MDT (8/27)
Length of Visible Light 14h 10m
Length of Day
13h 14m
Waxing Crescent, 4% of the Moon is Illuminated
Aug 27
Waxing Crescent
Sep 2
First Quarter
Sep 8
Full
Sep 15
Last Quarter
Sep 24
New

Hourly Weather History & Observations

Time (MDT) Temp. Windchill Dew Point Humidity Pressure Visibility Wind Dir Wind Speed Gust Speed Precip Events Conditions
12:17 AM 44.6 °F - 44.6 °F 100% 30.53 in 10.0 mi Calm Calm - N/A Rain Light Rain
12:37 AM 44.6 °F - 44.6 °F 100% 30.53 in 10.0 mi Calm Calm - N/A   Overcast
12:57 AM 44.6 °F - 42.8 °F 93% 30.53 in 10.0 mi Calm Calm - N/A   Drizzle
1:17 AM 44.6 °F - 42.8 °F 93% 30.52 in 10.0 mi Calm Calm - N/A Rain Light Rain
1:37 AM 44.6 °F 43.1 °F 42.8 °F 93% 30.52 in 5.0 mi WSW 3.5 mph - N/A Rain Rain
1:57 AM 44.6 °F - 42.8 °F 93% 30.51 in 1.2 mi Calm Calm - N/A Rain Light Rain
2:17 AM 44.6 °F - 44.6 °F 100% 30.51 in 0.5 mi Calm Calm - N/A Rain Light Rain
2:36 AM 44.6 °F - 42.8 °F 93% 30.51 in 4.0 mi Calm Calm - N/A Rain Rain
2:57 AM 42.8 °F - 42.8 °F 100% 30.50 in 4.0 mi Calm Calm - N/A Rain Rain
3:17 AM 42.8 °F - 42.8 °F 100% 30.50 in 10.0 mi Calm Calm - N/A   Light Drizzle
3:37 AM 44.6 °F - 42.8 °F 93% 30.49 in 2.0 mi Calm Calm - N/A   Light Drizzle
3:57 AM 42.8 °F - 42.8 °F 100% 30.49 in 0.5 mi Calm Calm - N/A Fog Fog
4:17 AM 42.8 °F - 42.8 °F 100% 30.49 in 2.0 mi Calm Calm - N/A   Overcast
4:37 AM 44.6 °F - 42.8 °F 93% 30.49 in 1.0 mi Calm Calm - N/A   Overcast
4:57 AM 42.8 °F - 42.8 °F 100% 30.49 in 2.0 mi Calm Calm - N/A   Overcast
5:17 AM 44.6 °F - 42.8 °F 93% 30.50 in 3.0 mi Calm Calm - N/A Thunderstorm Overcast
5:36 AM 44.6 °F - 42.8 °F 93% 30.49 in 1.8 mi Calm Calm - N/A   Overcast
5:56 AM 42.8 °F - 42.8 °F 100% 30.50 in 1.5 mi Calm Calm - N/A   Overcast
6:18 AM 42.8 °F - 42.8 °F 100% 30.50 in 0.8 mi Calm Calm - N/A   Overcast
6:37 AM 42.8 °F - 42.8 °F 100% 30.51 in 1.2 mi Calm Calm - N/A   Overcast
6:58 AM 42.8 °F - 42.8 °F 100% 30.51 in 0.8 mi Calm Calm - N/A   Overcast
7:18 AM 42.8 °F - 42.8 °F 100% 30.52 in 2.5 mi Calm Calm - N/A   Overcast
7:37 AM 44.6 °F - 42.8 °F 93% 30.52 in 5.0 mi Calm Calm - N/A   Overcast
7:57 AM 44.6 °F - 42.8 °F 93% 30.52 in 7.0 mi Calm Calm - N/A Thunderstorm Overcast
8:18 AM 42.8 °F - 42.8 °F 100% 30.53 in 10.0 mi Calm Calm - N/A   Mostly Cloudy
8:38 AM 44.6 °F - 42.8 °F 93% 30.53 in 10.0 mi Calm Calm - N/A   Overcast
9:18 AM 46.4 °F - 44.6 °F 93% 30.52 in 10.0 mi Calm Calm - N/A   Overcast
9:38 AM 44.6 °F 43.1 °F 42.8 °F 93% 30.52 in 2.0 mi SSW 3.5 mph - N/A Rain , Thunderstorm Rain
9:58 AM 42.8 °F 41.1 °F 41.0 °F 93% 30.51 in 0.8 mi SSW 3.5 mph - N/A Rain Rain
10:18 AM 42.8 °F - 42.8 °F 100% 30.51 in 1.0 mi Calm Calm - N/A Rain Light Rain
10:38 AM 44.6 °F - 44.6 °F 100% 30.51 in 10.0 mi Calm Calm - N/A   Mostly Cloudy
10:58 AM 46.4 °F - 46.4 °F 100% 30.53 in 10.0 mi Calm Calm - N/A Thunderstorm Mostly Cloudy
11:18 AM 46.4 °F - 46.4 °F 100% 30.53 in 10.0 mi Calm Calm - N/A   Overcast
11:37 AM 50.0 °F - 44.6 °F 82% 30.53 in 10.0 mi Calm Calm - N/A Thunderstorm Overcast
11:58 AM 50.0 °F - 46.4 °F 87% 30.53 in 10.0 mi Calm Calm - N/A Thunderstorm Overcast
12:18 PM 51.8 °F - 46.4 °F 82% 30.53 in 10.0 mi South 3.5 mph - N/A Thunderstorm Mostly Cloudy
12:38 PM 51.8 °F - 44.6 °F 76% 30.52 in 10.0 mi Calm Calm - N/A Thunderstorm Thunderstorm
12:58 PM 51.8 °F - 46.4 °F 82% 30.51 in 10.0 mi Calm Calm - N/A Thunderstorm Thunderstorm
1:18 PM 50.0 °F - 44.6 °F 82% 30.51 in 10.0 mi Calm Calm - N/A Rain , Thunderstorm Light Thunderstorms and Rain
1:38 PM 50.0 °F - 46.4 °F 87% 30.50 in 10.0 mi Calm Calm - N/A Thunderstorm Thunderstorm
1:58 PM 50.0 °F - 44.6 °F 82% 30.51 in 10.0 mi Calm Calm - N/A Rain , Thunderstorm Light Thunderstorms and Rain
2:18 PM 44.6 °F 41.4 °F 42.8 °F 93% 30.50 in 1.2 mi SW 5.8 mph - N/A Rain , Thunderstorm Heavy Thunderstorms and Rain
2:37 PM 46.4 °F 43.5 °F 44.6 °F 93% 30.50 in 0.2 mi WSW 5.8 mph - N/A Fog , Thunderstorm Unknown
2:58 PM 42.8 °F - 42.8 °F 100% 30.51 in 0.2 mi Calm Calm - N/A Rain , Thunderstorm Heavy Thunderstorms and Rain
3:18 PM 42.8 °F 41.1 °F 41.0 °F 93% 30.48 in 0.8 mi SW 3.5 mph - N/A Rain , Thunderstorm Light Thunderstorms and Rain
3:38 PM 42.8 °F - 41.0 °F 93% 30.49 in 7.0 mi Calm Calm - N/A Thunderstorm Overcast
3:58 PM 42.8 °F - 41.0 °F 93% 30.49 in 10.0 mi Calm Calm - N/A Thunderstorm Overcast
4:18 PM 46.4 °F - 46.4 °F 100% 30.49 in 10.0 mi Calm Calm - N/A Thunderstorm Thunderstorm
4:38 PM 46.4 °F - 44.6 °F 93% 30.49 in 10.0 mi Calm Calm - N/A Thunderstorm Scattered Clouds
4:57 PM 46.4 °F - 44.6 °F 93% 30.50 in 10.0 mi Calm Calm - N/A   Clear
5:18 PM 44.6 °F - 42.8 °F 93% 30.50 in 10.0 mi Calm Calm - N/A   Clear
5:37 PM 46.4 °F - 42.8 °F 87% 30.50 in 10.0 mi Calm Calm - N/A Thunderstorm Thunderstorm
5:57 PM 44.6 °F - 42.8 °F 93% 30.50 in 10.0 mi Calm Calm - N/A Thunderstorm Scattered Clouds
6:18 PM 44.6 °F - 42.8 °F 93% 30.49 in 7.0 mi Calm Calm - N/A Rain , Thunderstorm Light Thunderstorms and Rain
6:38 PM 42.8 °F - 41.0 °F 93% 30.48 in 10.0 mi Calm Calm - N/A Thunderstorm Mostly Cloudy
6:57 PM 42.8 °F - 41.0 °F 93% 30.48 in 2.0 mi Calm Calm - N/A Rain , Thunderstorm Thunderstorms and Rain
7:17 PM 42.8 °F - 42.8 °F 100% 30.49 in 0.8 mi Calm Calm - N/A Rain Rain
7:38 PM 42.8 °F 41.1 °F 42.8 °F 100% 30.48 in 0.5 mi SSW 3.5 mph - N/A Rain Light Rain
7:58 PM 42.8 °F - 41.0 °F 93% 30.49 in 1.5 mi Calm Calm - N/A Rain Light Rain
8:18 PM 41.0 °F - 41.0 °F 100% 30.48 in 2.5 mi Calm Calm - N/A Rain Light Rain
8:38 PM 41.0 °F - 41.0 °F 100% 30.49 in 2.0 mi Calm Calm - N/A Rain Light Rain
8:58 PM 41.0 °F - 41.0 °F 100% 30.49 in 1.8 mi Calm Calm - N/A Rain Light Rain
9:18 PM 41.0 °F 39.0 °F 39.2 °F 93% 30.50 in 0.8 mi SW 3.5 mph - N/A Rain Light Rain
9:38 PM 41.0 °F - 39.2 °F 93% 30.50 in 0.8 mi Calm Calm - N/A Rain Light Rain
9:57 PM 41.0 °F - 41.0 °F 100% 30.50 in 0.8 mi Calm Calm - N/A   Overcast
10:17 PM 41.0 °F - 41.0 °F 100% 30.50 in 1.0 mi Calm Calm - N/A   Overcast
10:37 PM 41.0 °F - 41.0 °F 100% 30.50 in 0.8 mi Calm Calm - N/A   Overcast
11:17 PM 41.0 °F - 41.0 °F 100% 30.49 in 0.8 mi Calm Calm - N/A   Overcast
11:37 PM 41.0 °F - 41.0 °F 100% 30.50 in 1.0 mi Calm Calm - N/A Rain Light Rain
11:57 PM 41.0 °F - 41.0 °F 100% 30.49 in 0.8 mi Calm Calm - N/A   Overcast